VOZ819 YMML-YSSY

Flight info

Callsign VOZ819
Flight time 1h 7m
Altitude 39000
Route DCT DOSEL Y59 RIVET DCT
Aircraft B738/M-SAE3DGHIJ4J5M1RWZ/LB1D1

Departure

Time 2026-04-26 22:22
Airport Melbourne Airport (YMML)

Arrival

Time 2026-04-26 23:29
Airport Sydney Kingsford Smith International Airport (YSSY)
Time Latitude Longitude Altitude Speed Heading
2026-04-26 21:24 -37.67270 144.84613 384 ft 0 kts 172°
2026-04-26 22:08 -37.67253 144.84610 384 ft 4 kts 171°
2026-04-26 22:08 -37.67226 144.84605 385 ft 4 kts 180°
2026-04-26 22:09 -37.67204 144.84611 385 ft 4 kts 235°
2026-04-26 22:09 -37.67201 144.84613 386 ft 4 kts 262°
2026-04-26 22:09 -37.67205 144.84580 385 ft 4 kts 261°
2026-04-26 22:09 -37.67207 144.84565 385 ft 0 kts 261°
2026-04-26 22:12 -37.67208 144.84555 385 ft 4 kts 261°
2026-04-26 22:12 -37.67210 144.84500 384 ft 8 kts 276°
2026-04-26 22:13 -37.67198 144.84432 383 ft 8 kts 274°
2026-04-26 22:13 -37.67203 144.84360 382 ft 8 kts 263°
2026-04-26 22:13 -37.67194 144.84286 381 ft 9 kts 306°
2026-04-26 22:13 -37.67139 144.84258 382 ft 9 kts 351°
2026-04-26 22:14 -37.67080 144.84247 383 ft 8 kts 351°
2026-04-26 22:14 -37.67023 144.84236 384 ft 8 kts 352°
2026-04-26 22:14 -37.66967 144.84226 386 ft 8 kts 351°
2026-04-26 22:14 -37.66913 144.84216 387 ft 8 kts 351°
2026-04-26 22:15 -37.66848 144.84203 389 ft 12 kts 352°
2026-04-26 22:15 -37.66764 144.84188 392 ft 12 kts 351°
2026-04-26 22:15 -37.66684 144.84173 395 ft 7 kts 352°
2026-04-26 22:15 -37.66640 144.84164 391 ft 6 kts 351°
2026-04-26 22:16 -37.66591 144.84154 400 ft 9 kts 350°
2026-04-26 22:16 -37.66519 144.84138 402 ft 12 kts 350°
2026-04-26 22:16 -37.66429 144.84126 407 ft 14 kts
2026-04-26 22:16 -37.66409 144.84132 404 ft 0 kts 146°
2026-04-26 22:17 -37.66422 144.84173 407 ft 11 kts 82°
2026-04-26 22:17 -37.66434 144.84280 404 ft 15 kts 96°
2026-04-26 22:17 -37.66407 144.84401 407 ft 14 kts 68°
2026-04-26 22:17 -37.66375 144.84514 409 ft 14 kts 84°
2026-04-26 22:18 -37.66379 144.84641 409 ft 15 kts 95°
2026-04-26 22:18 -37.66384 144.84722 410 ft 6 kts 94°
2026-04-26 22:18 -37.66373 144.84767 408 ft 5 kts 53°
2026-04-26 22:18 -37.66343 144.84786 411 ft 3 kts
2026-04-26 22:19 -37.66337 144.84786 411 ft 0 kts
2026-04-26 22:19 -37.66327 144.84787 411 ft 6 kts
2026-04-26 22:20 -37.66259 144.84794 411 ft 10 kts
2026-04-26 22:20 -37.66231 144.84788 410 ft 4 kts 319°
2026-04-26 22:20 -37.66224 144.84758 412 ft 2 kts 276°
2026-04-26 22:20 -37.66224 144.84748 412 ft 0 kts 275°
2026-04-26 22:21 -37.66222 144.84721 412 ft 12 kts 275°
2026-04-26 22:21 -37.66197 144.84291 409 ft 86 kts 274°
2026-04-26 22:21 -37.66136 144.83257 416 ft 147 kts 275°
2026-04-26 22:22 -37.66074 144.81883 845 ft 163 kts 273°
2026-04-26 22:22 -37.66006 144.80438 1652 ft 166 kts 274°
2026-04-26 22:22 -37.65897 144.78933 2152 ft 186 kts 275°
2026-04-26 22:22 -37.65768 144.77169 2415 ft 215 kts 275°
2026-04-26 22:23 -37.65627 144.75179 2718 ft 236 kts 275°
2026-04-26 22:23 -37.65486 144.73039 3103 ft 255 kts 275°
2026-04-26 22:23 -37.65350 144.70778 3875 ft 259 kts 275°
2026-04-26 22:23 -37.65226 144.68523 4681 ft 255 kts 275°
2026-04-26 22:24 -37.65106 144.66322 5409 ft 252 kts 278°
2026-04-26 22:24 -37.64428 144.64300 6101 ft 256 kts 313°
2026-04-26 22:24 -37.62886 144.63207 6923 ft 260 kts 348°
2026-04-26 22:24 -37.61061 144.63150 7693 ft 265 kts 356°
2026-04-26 22:25 -37.59212 144.62929 8404 ft 269 kts 348°
2026-04-26 22:25 -37.57368 144.62452 9173 ft 272 kts 345°
2026-04-26 22:25 -37.55468 144.62203 9894 ft 281 kts
2026-04-26 22:25 -37.53586 144.63005 10418 ft 299 kts 28°
2026-04-26 22:26 -37.51984 144.64848 10617 ft 326 kts 50°
2026-04-26 22:26 -37.50595 144.67171 11125 ft 336 kts 51°
2026-04-26 22:26 -37.49199 144.69559 11798 ft 340 kts 52°
2026-04-26 22:26 -37.47778 144.71958 12562 ft 343 kts 52°
2026-04-26 22:27 -37.46443 144.74420 13282 ft 348 kts 58°
2026-04-26 22:27 -37.45211 144.77067 14010 ft 352 kts 60°
2026-04-26 22:27 -37.44008 144.79777 14693 ft 357 kts 61°
2026-04-26 22:27 -37.42793 144.82527 15374 ft 361 kts 61°
2026-04-26 22:28 -37.41559 144.85293 16057 ft 365 kts 62°
2026-04-26 22:28 -37.40297 144.88092 16735 ft 370 kts 62°
2026-04-26 22:28 -37.39011 144.90919 17408 ft 374 kts 62°
2026-04-26 22:28 -37.37701 144.93780 18078 ft 379 kts 63°
2026-04-26 22:29 -37.36375 144.96665 18727 ft 383 kts 63°
2026-04-26 22:29 -37.35033 144.99580 19306 ft 387 kts 63°
2026-04-26 22:29 -37.33673 145.02526 19897 ft 391 kts 63°
2026-04-26 22:29 -37.32301 145.05495 20477 ft 395 kts 63°
2026-04-26 22:30 -37.30927 145.08465 21045 ft 399 kts 63°
2026-04-26 22:30 -37.29520 145.11505 21629 ft 403 kts 63°
2026-04-26 22:30 -37.28104 145.14560 22185 ft 406 kts 63°
2026-04-26 22:30 -37.26672 145.17647 22739 ft 410 kts 63°
2026-04-26 22:31 -37.25226 145.20762 23283 ft 414 kts 63°
2026-04-26 22:31 -37.23771 145.23894 23828 ft 417 kts 63°
2026-04-26 22:31 -37.22301 145.27055 24290 ft 421 kts 63°
2026-04-26 22:31 -37.20840 145.30192 24766 ft 423 kts 63°
2026-04-26 22:32 -37.19352 145.33386 25220 ft 426 kts 63°
2026-04-26 22:32 -37.17851 145.36606 25634 ft 429 kts 63°
2026-04-26 22:32 -37.16325 145.39852 26040 ft 434 kts 62°
2026-04-26 22:32 -37.14655 145.43030 26455 ft 438 kts 59°
2026-04-26 22:33 -37.12873 145.46152 26901 ft 441 kts 57°
2026-04-26 22:33 -37.09208 145.52369 27701 ft 448 kts 57°
2026-04-26 22:33 -37.07352 145.55523 28101 ft 451 kts 57°
2026-04-26 22:34 -37.05492 145.58709 28495 ft 454 kts 57°
2026-04-26 22:34 -37.03630 145.61916 28874 ft 457 kts 57°
2026-04-26 22:34 -37.01759 145.65153 29236 ft 460 kts 57°
2026-04-26 22:34 -36.99879 145.68410 29599 ft 463 kts 57°
2026-04-26 22:35 -36.97991 145.71683 29952 ft 465 kts 57°
2026-04-26 22:35 -36.96090 145.74975 30294 ft 468 kts 57°
2026-04-26 22:35 -36.94198 145.78249 30587 ft 471 kts 57°
2026-04-26 22:35 -36.92274 145.81569 30934 ft 472 kts 56°
2026-04-26 22:36 -36.90347 145.84893 31250 ft 473 kts 57°
2026-04-26 22:36 -36.88405 145.88242 31491 ft 476 kts 57°
2026-04-26 22:36 -36.86455 145.91601 31731 ft 479 kts 57°
2026-04-26 22:36 -36.84494 145.94977 31986 ft 481 kts 57°
2026-04-26 22:37 -36.82524 145.98363 32234 ft 483 kts 57°
2026-04-26 22:37 -36.80565 146.01726 32496 ft 485 kts 57°
2026-04-26 22:37 -36.78583 146.05124 32839 ft 484 kts 57°
2026-04-26 22:37 -36.76606 146.08507 33337 ft 480 kts 57°
2026-04-26 22:38 -36.74645 146.11861 33740 ft 478 kts 57°
2026-04-26 22:38 -36.72679 146.15224 34006 ft 480 kts 57°
2026-04-26 22:38 -36.70706 146.18596 34238 ft 482 kts 57°
2026-04-26 22:38 -36.68729 146.21972 34515 ft 482 kts 57°
2026-04-26 22:39 -36.66756 146.25337 34804 ft 481 kts 57°
2026-04-26 22:39 -36.64784 146.28694 35102 ft 480 kts 57°
2026-04-26 22:39 -36.62814 146.32047 35359 ft 480 kts 56°
2026-04-26 22:39 -36.60842 146.35398 35682 ft 478 kts 56°
2026-04-26 22:40 -36.58881 146.38729 35998 ft 476 kts 56°
2026-04-26 22:40 -36.56923 146.42050 36232 ft 476 kts 56°
2026-04-26 22:40 -36.54981 146.45342 36416 ft 478 kts 56°
2026-04-26 22:40 -36.53014 146.48674 36642 ft 478 kts 56°
2026-04-26 22:41 -36.51046 146.52003 36905 ft 477 kts 56°
2026-04-26 22:41 -36.49079 146.55327 37150 ft 477 kts 56°
2026-04-26 22:41 -36.47749 146.57572 37312 ft 476 kts 56°
2026-04-26 22:41 -36.45150 146.61957 37622 ft 476 kts 56°
2026-04-26 22:42 -36.43184 146.65269 37827 ft 476 kts 56°
2026-04-26 22:42 -36.41881 146.67464 37968 ft 476 kts 56°
2026-04-26 22:42 -36.39909 146.70780 38198 ft 476 kts 56°
2026-04-26 22:42 -36.37942 146.74086 38413 ft 476 kts 56°
2026-04-26 22:43 -36.35974 146.77392 38586 ft 477 kts 57°
2026-04-26 22:43 -36.34000 146.80703 38822 ft 475 kts 56°
2026-04-26 22:43 -36.32033 146.83998 39035 ft 475 kts 57°
2026-04-26 22:43 -36.30066 146.87291 39214 ft 474 kts 56°
2026-04-26 22:44 -36.28103 146.90576 39312 ft 475 kts 56°
2026-04-26 22:44 -36.24168 146.97151 39315 ft 477 kts 56°
2026-04-26 22:45 -36.20201 147.03766 39312 ft 474 kts 56°
2026-04-26 22:45 -36.16299 147.10257 39320 ft 472 kts 56°
2026-04-26 22:46 -36.12384 147.16757 39326 ft 470 kts 55°
2026-04-26 22:46 -36.08479 147.23233 39322 ft 469 kts 55°
2026-04-26 22:47 -36.04582 147.29686 39316 ft 468 kts 55°
2026-04-26 22:47 -36.00705 147.36093 39322 ft 468 kts 55°
2026-04-26 22:48 -35.96801 147.42530 39333 ft 468 kts 54°
2026-04-26 22:48 -35.92886 147.48979 39327 ft 470 kts 54°
2026-04-26 22:49 -35.88961 147.55433 39323 ft 471 kts 54°
2026-04-26 22:49 -35.85040 147.61866 39327 ft 472 kts 54°
2026-04-26 22:50 -35.81087 147.68334 39335 ft 473 kts 54°
2026-04-26 22:50 -35.77120 147.74808 39327 ft 473 kts 54°
2026-04-26 22:51 -35.73146 147.81286 39324 ft 474 kts 54°
2026-04-26 22:51 -35.69174 147.87752 39320 ft 473 kts 54°
2026-04-26 22:52 -35.65202 147.94204 39332 ft 473 kts 53°
2026-04-26 22:52 -35.61225 148.00652 39323 ft 472 kts 53°
2026-04-26 22:53 -35.57283 148.07034 39319 ft 470 kts 53°
2026-04-26 22:53 -35.53325 148.13428 39319 ft 469 kts 53°
2026-04-26 22:54 -35.49379 148.19792 39321 ft 466 kts 53°
2026-04-26 22:54 -35.45448 148.26123 39320 ft 465 kts 53°
2026-04-26 22:55 -35.41555 148.32375 39321 ft 463 kts 53°
2026-04-26 22:55 -35.37640 148.38638 39320 ft 461 kts 53°
2026-04-26 22:56 -35.33742 148.44863 39320 ft 460 kts 53°
2026-04-26 22:56 -35.29847 148.51075 39324 ft 459 kts 52°
2026-04-26 22:57 -35.25963 148.57261 39320 ft 458 kts 52°
2026-04-26 22:57 -35.22073 148.63447 39327 ft 458 kts 52°
2026-04-26 22:58 -35.18207 148.69584 39332 ft 458 kts 52°
2026-04-26 22:58 -35.14304 148.75766 39344 ft 459 kts 52°
2026-04-26 22:59 -35.10419 148.81911 39347 ft 459 kts 52°
2026-04-26 22:59 -35.06507 148.88086 39332 ft 460 kts 52°
2026-04-26 23:00 -35.02577 148.94281 39053 ft 466 kts 52°
2026-04-26 23:00 -35.00582 148.97420 38502 ft 467 kts 52°
2026-04-26 23:00 -34.98596 149.00543 37949 ft 464 kts 52°
2026-04-26 23:00 -34.96617 149.03652 37384 ft 462 kts 52°
2026-04-26 23:01 -34.94648 149.06743 36836 ft 461 kts 51°
2026-04-26 23:01 -34.92684 149.09823 36262 ft 460 kts 51°
2026-04-26 23:01 -34.90722 149.12898 35658 ft 460 kts 51°
2026-04-26 23:01 -34.88784 149.15933 35055 ft 460 kts 51°
2026-04-26 23:02 -34.86811 149.19019 34437 ft 461 kts 51°
2026-04-26 23:02 -34.84836 149.22106 33710 ft 463 kts 51°
2026-04-26 23:02 -34.82840 149.25223 33005 ft 463 kts 51°
2026-04-26 23:02 -34.80859 149.28315 32315 ft 463 kts 51°
2026-04-26 23:03 -34.78900 149.31369 31771 ft 460 kts 51°
2026-04-26 23:03 -34.76941 149.34422 31300 ft 455 kts 51°
2026-04-26 23:03 -34.74998 149.37447 30815 ft 451 kts 52°
2026-04-26 23:03 -34.73208 149.40553 30408 ft 445 kts 60°
2026-04-26 23:04 -34.71753 149.43829 30094 ft 436 kts 62°
2026-04-26 23:04 -34.70369 149.47086 29634 ft 430 kts 63°
2026-04-26 23:04 -34.69006 149.50311 29143 ft 426 kts 62°
2026-04-26 23:04 -34.67667 149.53453 28672 ft 421 kts 62°
2026-04-26 23:05 -34.66314 149.56594 28196 ft 418 kts 62°
2026-04-26 23:05 -34.64965 149.59700 27715 ft 414 kts 62°
2026-04-26 23:05 -34.63622 149.62778 27238 ft 411 kts 62°
2026-04-26 23:05 -34.62285 149.65831 26777 ft 407 kts 62°
2026-04-26 23:06 -34.60957 149.68856 26317 ft 404 kts 62°
2026-04-26 23:06 -34.59638 149.71861 25862 ft 401 kts 62°
2026-04-26 23:06 -34.58328 149.74843 25411 ft 399 kts 62°
2026-04-26 23:06 -34.57028 149.77801 24960 ft 396 kts 62°
2026-04-26 23:07 -34.55731 149.80748 24503 ft 394 kts 62°
2026-04-26 23:07 -34.54443 149.83675 24048 ft 392 kts 62°
2026-04-26 23:07 -34.53160 149.86588 23537 ft 391 kts 62°
2026-04-26 23:07 -34.51885 149.89481 23042 ft 388 kts 61°
2026-04-26 23:08 -34.50617 149.92352 22578 ft 385 kts 61°
2026-04-26 23:08 -34.49361 149.95196 22185 ft 380 kts 61°
2026-04-26 23:08 -34.48120 149.98001 21756 ft 376 kts 61°
2026-04-26 23:08 -34.46903 150.00751 21324 ft 373 kts 61°
2026-04-26 23:09 -34.45679 150.03514 20895 ft 370 kts 61°
2026-04-26 23:09 -34.44464 150.06256 20467 ft 368 kts 61°
2026-04-26 23:09 -34.43255 150.08983 20037 ft 366 kts 61°
2026-04-26 23:09 -34.42056 150.11687 19618 ft 364 kts 61°
2026-04-26 23:10 -34.40860 150.14379 19190 ft 362 kts 61°
2026-04-26 23:10 -34.39671 150.17056 18768 ft 360 kts 61°
2026-04-26 23:10 -34.38488 150.19716 18303 ft 358 kts 61°
2026-04-26 23:10 -34.37307 150.22371 17839 ft 356 kts 61°
2026-04-26 23:11 -34.36136 150.25000 17399 ft 354 kts 61°
2026-04-26 23:11 -34.34982 150.27591 16975 ft 351 kts 61°
2026-04-26 23:11 -34.33827 150.30180 16558 ft 348 kts 62°
2026-04-26 23:11 -34.32680 150.32751 16144 ft 346 kts 62°
2026-04-26 23:12 -34.31538 150.35308 15730 ft 344 kts 62°
2026-04-26 23:12 -34.30406 150.37844 15324 ft 342 kts 62°
2026-04-26 23:12 -34.29275 150.40371 14921 ft 340 kts 62°
2026-04-26 23:12 -34.28151 150.42881 14518 ft 339 kts 62°
2026-04-26 23:13 -34.27028 150.45390 14101 ft 338 kts 62°
2026-04-26 23:13 -34.25910 150.47888 13647 ft 337 kts 62°
2026-04-26 23:13 -34.24798 150.50372 13224 ft 335 kts 62°
2026-04-26 23:13 -34.23688 150.52848 12801 ft 333 kts 62°
2026-04-26 23:14 -34.22602 150.55273 12398 ft 331 kts 62°
2026-04-26 23:14 -34.21506 150.57717 11998 ft 329 kts 62°
2026-04-26 23:14 -34.20414 150.60151 11599 ft 327 kts 62°
2026-04-26 23:14 -34.19334 150.62556 11203 ft 326 kts 62°
2026-04-26 23:15 -34.18259 150.64945 10945 ft 319 kts 62°
2026-04-26 23:15 -34.17195 150.67310 10574 ft 318 kts 62°
2026-04-26 23:15 -34.16152 150.69628 10368 ft 311 kts 62°
2026-04-26 23:15 -34.15146 150.71863 10222 ft 302 kts 62°
2026-04-26 23:16 -34.14158 150.74058 10079 ft 293 kts 62°
2026-04-26 23:16 -34.13198 150.76189 9879 ft 287 kts 62°
2026-04-26 23:16 -34.12247 150.78299 9579 ft 285 kts 62°
2026-04-26 23:16 -34.11303 150.80390 9302 ft 282 kts 62°
2026-04-26 23:17 -34.10366 150.82464 9015 ft 280 kts 62°
2026-04-26 23:17 -34.09441 150.84517 8770 ft 277 kts 62°
2026-04-26 23:17 -34.08530 150.86542 8542 ft 273 kts 62°
2026-04-26 23:17 -34.07629 150.88544 8318 ft 270 kts 62°
2026-04-26 23:18 -34.06734 150.90535 8093 ft 270 kts 62°
2026-04-26 23:18 -34.05835 150.92531 7871 ft 270 kts 62°
2026-04-26 23:18 -34.04949 150.94494 7651 ft 270 kts 62°
2026-04-26 23:18 -34.04051 150.96483 7438 ft 269 kts 62°
2026-04-26 23:19 -34.03239 150.98513 7189 ft 269 kts 75°
2026-04-26 23:19 -34.03216 151.00732 6979 ft 265 kts 105°
2026-04-26 23:19 -34.04021 151.02716 6756 ft 264 kts 128°
2026-04-26 23:19 -34.05255 151.04345 6550 ft 262 kts 134°
2026-04-26 23:20 -34.06527 151.05924 6305 ft 261 kts 134°
2026-04-26 23:20 -34.07851 151.07410 6065 ft 260 kts 147°
2026-04-26 23:20 -34.09531 151.08180 5868 ft 259 kts 166°
2026-04-26 23:20 -34.11288 151.08630 5643 ft 257 kts 168°
2026-04-26 23:21 -34.13033 151.09058 5432 ft 255 kts 168°
2026-04-26 23:21 -34.14761 151.09491 5229 ft 250 kts 167°
2026-04-26 23:21 -34.16408 151.09914 5025 ft 240 kts 167°
2026-04-26 23:21 -34.18006 151.10325 4806 ft 228 kts 167°
2026-04-26 23:22 -34.19528 151.10732 4579 ft 219 kts 162°
2026-04-26 23:22 -34.20756 151.11682 4440 ft 206 kts 127°
2026-04-26 23:22 -34.21245 151.13255 4338 ft 201 kts 90°
2026-04-26 23:22 -34.20987 151.14902 4230 ft 201 kts 74°
2026-04-26 23:23 -34.20586 151.16524 4077 ft 202 kts 73°
2026-04-26 23:23 -34.20180 151.18156 3913 ft 203 kts 72°
2026-04-26 23:23 -34.19784 151.19764 3746 ft 201 kts 73°
2026-04-26 23:23 -34.19193 151.21252 3556 ft 196 kts 45°
2026-04-26 23:24 -34.18119 151.22181 3437 ft 187 kts 32°
2026-04-26 23:24 -34.17017 151.22996 3284 ft 186 kts 25°
2026-04-26 23:24 -34.15786 151.23124 3240 ft 177 kts 345°
2026-04-26 23:24 -34.14596 151.22765 3235 ft 179 kts 350°
2026-04-26 23:25 -34.13334 151.22459 3050 ft 186 kts 349°
2026-04-26 23:25 -34.12072 151.22141 3007 ft 184 kts 349°
2026-04-26 23:25 -34.10814 151.21816 2908 ft 184 kts 349°
2026-04-26 23:25 -34.09586 151.21496 2680 ft 181 kts 349°
2026-04-26 23:26 -34.08368 151.21179 2439 ft 178 kts 349°
2026-04-26 23:26 -34.07172 151.20867 2202 ft 172 kts 348°
2026-04-26 23:26 -34.06039 151.20572 1989 ft 161 kts 348°
2026-04-26 23:26 -34.04968 151.20293 1749 ft 154 kts 348°
2026-04-26 23:27 -34.03944 151.20027 1601 ft 147 kts 347°
2026-04-26 23:27 -34.02921 151.19759 1379 ft 149 kts 347°
2026-04-26 23:27 -34.01923 151.19499 1169 ft 143 kts 346°
2026-04-26 23:27 -34.01268 151.19330 1074 ft 143 kts 347°
2026-04-26 23:28 -34.00290 151.19079 853 ft 141 kts 345°
2026-04-26 23:28 -33.99352 151.18843 648 ft 137 kts 345°
2026-04-26 23:28 -33.98424 151.18585 466 ft 137 kts 345°
2026-04-26 23:28 -33.97489 151.18341 267 ft 137 kts 345°
2026-04-26 23:29 -33.96579 151.18106 99 ft 134 kts 345°
2026-04-26 23:29 -33.95702 151.17875 28 ft 112 kts 349°
2026-04-26 23:29 -33.95152 151.17734 27 ft 57 kts 347°
2026-04-26 23:29 -33.94842 151.17656 28 ft 29 kts 352°
2026-04-26 23:30 -33.94645 151.17648 28 ft 27 kts
2026-04-26 23:30 -33.94507 151.17686 29 ft 11 kts 19°
2026-04-26 23:30 -33.94436 151.17714 29 ft 11 kts 18°
2026-04-26 23:30 -33.94366 151.17737 29 ft 10 kts
2026-04-26 23:31 -33.94296 151.17724 29 ft 11 kts 344°
2026-04-26 23:31 -33.94205 151.17696 28 ft 17 kts 345°
2026-04-26 23:31 -33.94088 151.17661 27 ft 17 kts 347°
2026-04-26 23:31 -33.93972 151.17630 28 ft 17 kts 347°
2026-04-26 23:32 -33.93878 151.17633 28 ft 12 kts 50°
2026-04-26 23:32 -33.93851 151.17729 29 ft 12 kts 74°
2026-04-26 23:32 -33.93828 151.17825 29 ft 12 kts 74°
2026-04-26 23:32 -33.93802 151.17935 29 ft 15 kts 74°
2026-04-26 23:33 -33.93775 151.18042 29 ft 11 kts 62°
2026-04-26 23:33 -33.93708 151.18058 29 ft 10 kts 349°
2026-04-26 23:33 -33.93683 151.18036 29 ft 3 kts 291°
2026-04-26 23:33 -33.93677 151.17999 29 ft 6 kts 280°
2026-04-26 23:34 -33.93675 151.17987 29 ft 0 kts 280°